Home   Weather   Guimarães   Past weeks

Flag for Portugal Past Weather in Guimarães, Portugal — Yesterday and Last 2 Weeks

Now
39 °F

Chilly.


Feels Like: 35 °F
Forecast: 30 / 54 °F
Wind: 5 mph from East

Location: Porto / Pedras Rubras

Current Time: Jan 21, 2017 at 4:29:51 am

Latest Report: Jan 21, 2017 at 3:00 am


Visibility: N/A

Pressure: 30.12 "Hg

Humidity: 69%

Dew Point: 29 °F

Location of GuimarãesLocation

Past Weather in Guimarães — Graph

°F

Guimarães Temperature Yesterday

Maximum temperature yesterday: 56 °F (at 3:00 pm)
Minimum temperature yesterday: 30 °F (at 3:00 am)
Average temperature yesterday: 43 °F

High & Low Weather Summary for the Past Weeks

 TemperatureHumidityPressure
High63 °F (Jan 6, 2:00 pm)94% (Jan 12, 2:00 am)30.55 "Hg (Jan 12, 2:00 am)
Low30 °F (Jan 20, 3:00 am)19% (Jan 18, 2:00 pm)30.06 "Hg (Jan 20, 2:00 pm)
Average47 °F63%30.33 "Hg
* Reported Jan 6 2:00 am — Jan 21 2:00 am, Guimarães, Weather by CustomWeather, © 2017

Note: Actual official high and low records may vary slightly from our data, if they occured in-between our weather recording intervals... More about our weather records

Advertising

Guimarães Weather History for the Previous 24 Hours

Scroll right to see more
 ConditionsComfort  
Time TempWeatherWind HumidityBarometerVisibility
2:00 am
Sat, Jan 21
40 °FChilly.5 mph66%30.11 "HgN/A
1:00 am40 °FChilly.5 mph69%30.12 "HgN/A
12:00 am40 °FChilly.2 mph69%30.13 "HgN/A
11:00 pm
Fri, Jan 20
44 °FQuite cool.3 mph61%30.12 "HgN/A
10:00 pm42 °FQuite cool.2 mph69%30.13 "HgN/A
9:00 pm44 °FQuite cool.2 mph58%30.13 "HgN/A
8:00 pm45 °FCool.3 mph61%30.12 "HgN/A
7:00 pm47 °FCool.2 mph56%30.11 "HgN/A
6:00 pm46 °FCool.2 mph59%30.09 "HgN/A
5:00 pm50 °FCool.3 mph52%30.07 "HgN/A
4:00 pm55 °FRefreshingly cool.2 mph40%30.07 "HgN/A
3:00 pm56 °FRefreshingly cool.5 mph36%30.06 "HgN/A
2:00 pm56 °FRefreshingly cool.3 mph37%30.06 "HgN/A
1:00 pm53 °FCool.3 mph37%30.09 "HgN/A
12:00 pm47 °FCool.2 mph50%30.12 "HgN/A
11:00 am46 °FCool.3 mph47%30.14 "HgN/A
10:00 am47 °FCool.3 mph46%30.12 "HgN/A
9:00 am40 °FChilly.3 mph57%30.11 "HgN/A
8:00 am36 °FChilly.3 mph62%30.11 "HgN/A
7:00 am37 °FChilly.2 mph56%30.10 "HgN/A
6:00 am31 °FChilly.2 mph72%30.11 "HgN/A
5:00 am33 °FChilly.1 mph69%30.11 "HgN/A
4:00 am31 °FChilly.3 mph73%30.11 "HgN/A
Weather by CustomWeather, © 2017

See weather overviewHow to use our weather pages